Regional Weather Roundup
Issued by NWS Upton, NY

Current Version | Previous Version | Text Only | Print | Product List | Glossary On
Versions: 1 2 3 4 5 6 7 8 9 10 11 12 13 14 15 16 17 18 19 20 21 22 23 24 25 26 27 28 29 30 31 32 33 34 35 36 37 38 39 40 41 42 43 44 45 46 47 48 49 50
000
ASUS41 KOKX 302308
RWROKX

REGIONAL WEATHER ROUNDUP
NATIONAL WEATHER SERVICE NEW YORK NY
700 PM EDT TUE JUN 30 2015

NOTE: "FAIR" INDICATES FEW OR NO CLOUDS BELOW 12,000 FEET WITH NO
SIGNIFICANT WEATHER AND/OR OBSTRUCTIONS TO VISIBILITY.

NYZ071-072-176-178-NJZ106-104-010000-
NEW YORK CITY METRO AREA


CITY           SKY/WX    TMP DP  RH WIND       PRES   REMARKS
CENTRAL PARK   PTSUNNY   75  65  70 VRB7      29.91S
LAGUARDIA APRT CLOUDY    76  64  66 S16G24    29.88R
KENNEDY INTL   PTSUNNY   74  64  71 SE14      29.89R
NEWARK/LIBERTY PTSUNNY   76  68  76 S10G21    29.87R
BRNX BOT. GARD   N/A     75  64  69 SE8       29.90F
TETERBORO      MOSUNNY   77  65  66 S14       29.86S
$$

NYZ177-179-078>081-010000-
LONG ISLAND NEW YORK

CITY           SKY/WX    TMP DP  RH WIND       PRES   REMARKS
FARMINGDALE    PTSUNNY   74  63  68 SE15      29.91R
ISLIP          PTSUNNY   73  61  65 SE13      29.90S
SHIRLEY        MOSUNNY   73  62  68 SE10G17   29.93S
WESTHAMPTON    MOSUNNY   73  63  70 SE8       29.95S
MONTAUK POINT    N/A     73  66  78 SE6       29.96F
$$

NYZ052-065-067-010000-
HUDSON VALLEY

CITY           SKY/WX    TMP DP  RH WIND       PRES   REMARKS
WHITE PLAINS   MOSUNNY   74  62  66 SE10      29.90S
NEWBURGH       PTSUNNY   73  61  64 S12       29.88S
MONTGOMERY     CLOUDY    68  67  96 CALM      29.87R
POUGHKEEPSIE   PTSUNNY   75  62  64 SW3       29.85F
ALBANY         PTSUNNY   70  65  84 N3        29.87F
$$

NJZ001-105-106-008-010-013-015-019>022-104-010000-
NEW JERSEY

CITY           SKY/WX    TMP DP  RH WIND       PRES   REMARKS
NEWARK/LIBERTY PTSUNNY   76  68  76 S10G21    29.87R
TETERBORO      MOSUNNY   77  65  66 S14       29.86S
CALDWELL       MOSUNNY   75  66  73 SE13G20   29.87R
MORRISTOWN     PTSUNNY   79  68  69 SE13G18   29.86R
SOMERVILLE     MOSUNNY   78  63  59 S12G22    29.83R
SUSSEX         CLOUDY    69  66  90 NE3       29.86S
ANDOVER          N/A     71  69  93 CALM      29.85S
TRENTON        PTSUNNY   76  66  71 S10       29.83F
MILLVILLE      CLOUDY    78  70  76 S13G21    29.84R
ATLANTIC CITY  CLOUDY    77  70  79 S15G25    29.87R
WRIGHTSTOWN    LGT RAIN  74  71  89 S8G18     29.84R
TOMS RIVER     PTSUNNY   77  68  73 S8        29.88R
BELMAR         PTSUNNY   73  66  78 S10G17    29.88S
$$

PAZ047>061-062-071-010000-
EASTERN PENNSYLVANIA

CITY           SKY/WX    TMP DP  RH WIND       PRES   REMARKS
PHILADELPHIA   PTSUNNY   76  69  79 E12       29.84S
ALLENTOWN      CLOUDY    77  66  68 S3        29.83R
SCRANTON       PTSUNNY   72  63  73 E6        29.83S
$$

CTZ002-004>006-009-010-012-RIZ004-006-007-MAZ004-011-015-010000-
SOUTHERN NEW ENGLAND
 IN CT

CITY           SKY/WX    TMP DP  RH WIND       PRES   REMARKS
BRADLEY INTL   PTSUNNY   75  58  55 S14       29.91R
HARTFORD       PTSUNNY   76  59  55 S10       29.91S
DANBURY        PTSUNNY   73  58  59 S9        29.92R
WTRBRY/OXFORD  PTSUNNY   73  57  56 S12       29.94R
BRIDGEPORT     PTSUNNY   74  61  63 S10       29.91R
MERIDEN        PTSUNNY   76  57  51 S9        29.91S
NEW HAVEN      PTSUNNY   74  60  61 SE12      29.92S
CHESTER        FAIR      73  59  60 S9        29.95S
GROTON         SUNNY     70  63  78 SE8       29.94S
WILLIMANTIC    PTSUNNY   76  58  53 S7        29.94S

 IN RI

CITY           SKY/WX    TMP DP  RH WIND       PRES   REMARKS
PROVIDENCE     PTSUNNY   73  61  65 SE10      29.95F
BLOCK ISLAND   SUNNY     72  64  78 S10       29.96F
WESTERLY       SUNNY     71  65  81 S7        29.96S

 IN MA

CITY           SKY/WX    TMP DP  RH WIND       PRES   REMARKS
BOSTON         MOSUNNY   68  61  78 NE5       29.94F
WORCESTER      PTSUNNY   74  56  53 S10       29.96S
WESTFIELD      PTSUNNY   75  58  55 S8        29.91R
PROVINCETOWN   SUNNY     75  16  10 S8        29.97S
NANTUCKET      SUNNY     68  60  75 SE6       29.98F
$$

ANZ330-335-338-340-345-350-353-355-010000-
COASTAL MARINE OBSERVATIONS


STATION/POSITION TIME  SKY/WX   TEMP    WIND        PRES    VSBY  WAVE
                                AIR SEA DIR/SP/G                  HT/PER
                 (UTC)          (F)     (DEG/KT/KT) (MB)    (MI)  (FT/S)
NY HARB ENTRANCE 2150            70 69  150/ 16/ 17 1011.2          3/ 8
4S FIRE IS       2203               68                N/A           3/ 8
20S FIRE ISLAND  2150            70 68  140/ 14/ 16 1012.1          3/ 7
GREAT SOUTH BAY  2200            71 74  170/ 14/ 16   N/A
23SW MTP         2250            69 68  150/  6/  6 1013.5          3/ 7
HUDSON CANYON    NOT AVBL
KINGS POINT      2200            75 69  190/ 13/ 18 1011.0
CENTRAL LI SOUND NOT AVBL
EASTERN LI SOUND 2200            73     130/  6/ 10   N/A
ROBBINS REEF     2200            72     150/ 22/ 28 1010.2
$$


>>>>>>>>>>>>>>>>>>>>>>>>>>>> KEY <<<<<<<<<<<<<<<<<<<<<<<<<<<
>                                                          <
>     SKY/WX - SKY CONDITION/PRESENT WEATHER               <
>     TMP    - TEMPERATURE IN FAHRENHEIT                   <
>     DP     - DEWPOINT IN FAHRENHEIT                      <
>     RH     - RELATIVE HUMIDITY IN PERCENT                <
>     WIND   - DIRECTION AND SPEED IN MPH                  <
>     PRES   - MEAN SEA LEVEL PRESSURE IN INCHES OF HG     <
>     WCI    - WIND CHILL INDEX                            <
>     VSB    - VISIBILITY IN MILES                         <
>     HX     - HEAT INDEX                                  <
>     TC     - TEMPERATURE IN CELSIUS                      <
>     VRB    - VARIABLE WIND DIRECTION                     <
>                                                          <
>>>>>>>>>>>>>>>>>>>>>>>>>>>> KEY <<<<<<<<<<<<<<<<<<<<<<<<<<<




USA.gov is the U.S. government's official web portal to all federal, state and local government web resources and services.